Preview of NWS' New Version of Forecast
This preview is not operational and should not be used for support decisions.

Regional Weather Roundup (RWR)

Issued by National Weather Service (NWS)

                            
000
ASUS43 KDMX 151406
RWRIA 

WEATHER ROUNDUP FOR IOWA
NATIONAL WEATHER SERVICE DES MOINES IA
900 AM CDT SUN SEP 15 2019

NOTE: "FAIR" INDICATES FEW OR NO CLOUDS BELOW 12,000 FEET WITH NO
SIGNIFICANT WEATHER AND/OR OBSTRUCTIONS TO VISIBILITY.

* - THESE STATIONS ARE NOT NWS STATIONS...THUS NOT UNDER NWS
QUALITY CONTROL.  THEY ALSO DO NOT REPORT WEATHER SUCH 
AS PRECIPITATION OR FOG.  

IAZ001>003-012>014-020>022-031>034-043>046-151500-
   NORTHWEST IOWA
  
CITY           SKY/WX    TMP DP  RH WIND       PRES   REMARKS
CARROLL *      SUNNY     72  68  88 W9        29.98R                  
CHEROKEE *     FOG       65  65 100 CALM      30.00R VSB<1/4          
DENISON *      SUNNY     70  70 100 CALM      30.01R                  
LE MARS *      FOG       64  64 100 CALM      30.00R VSB<1/4          
SIOUX CITY     CLOUDY    65  63  93 CALM      30.00R                  
SPENCER        FOG       69  67  93 N5        30.00R VSB<1/4          
STORM LAKE *   FOG       68  68 100 CALM      29.97S VSB<1/4          
$$
 
IAZ055>058-069>071-079>083-090>094-151500-
   SOUTHWEST IOWA
  
CITY           SKY/WX    TMP DP  RH WIND       PRES   REMARKS
ATLANTIC *     SUNNY     72  72 100 SW5       29.98F                  
AUDUBON *        N/A     72  68  88 SW3       30.00S                  
CLARINDA *     SUNNY     73  72  94 SW5       30.02S                  
COUNCIL BLFS * SUNNY     73  72  94 W6        29.98S                  
CRESTON *      SUNNY     73  70  88 SW7       30.01S                  
LAMONI         SUNNY     75  70  84 SW12      30.02R                  
RED OAK *      SUNNY     73  70  88 S3        30.00S                  
SHENANDOAH *   SUNNY     73  68  83 SW3       29.99S                  
$$
 
IAZ047>049-059>061-072>074-084-151500-
   CENTRAL IOWA
  
CITY           SKY/WX    TMP DP  RH WIND       PRES   REMARKS
AMES           SUNNY     73  70  90 SW7       29.97S                  
ANKENY *       SUNNY     75  70  83 SW7       29.99R                  
BOONE *        SUNNY     73  73 100 SW6       29.97S                  
CHARITON *     SUNNY     77  73  88 SW14G23   29.99S                  
DES MOINES     MOSUNNY   75  68  78 SW10      29.97S                  
GRINNELL*      SUNNY     74  70  87 S6        30.00S                  
KNOXVILLE *    SUNNY     77  72  83 SW10G16   29.98S                  
MARSHALLTOWN   SUNNY     72  72 100 SW7       29.97S                  
NEWTON *       SUNNY     75  72  88 W7        29.97S                  
PELLA *        SUNNY     77  69  75 SW5       29.99F                  
PERRY *        FAIR      73  70  91 W5        29.97S                  
$$
 
IAZ004>006-015-016-023>025-035-036-151500-
   NORTH CENTRAL IOWA
  
CITY           SKY/WX    TMP DP  RH WIND       PRES   REMARKS
ALGONA *       FOG       66  66 100 N6        29.98R VSB 0            
CLARION *      CLOUDY    68  68 100 CALM      29.99R FOG              
ESTHERVILLE    FOG       64  64 100 N3        29.99R VSB<1/4          
FORT DODGE *   FOG       67  67 100 CALM      29.99R VSB 3/4          
MASON CITY     CLOUDY    65  63  93 S3        29.99S FOG              
FOREST CITY *  FOG       68  68 100 CALM      29.99R VSB 1/4          
IOWA FALLS *     N/A     70  67  88 SW7       29.99S                  
$$

IAZ007>011-017>019-026>030-037>042-050>054-066-151500-
   NORTHEAST IOWA
  
CITY           SKY/WX    TMP DP  RH WIND       PRES   REMARKS
CEDAR RAPIDS   PTSUNNY   70  69  97 S10       29.99F                  
CHARLES CITY * CLOUDY    66  66 100 S5        29.99R                  
CLINTON *      LGT RAIN  67  67 100 S12       30.04S                  
DECORAH *      PTSUNNY   68  66  94 VRB6      29.98S                  
DUBUQUE        CLOUDY    66  66 100 S10G20    30.02S                  
MONTICELLO *   CLOUDY    68  68 100 SE5       30.00F                  
OELWEIN *      CLOUDY    70  70 100 S9        29.99S                  
WATERLOO       PTSUNNY   71  67  87 SE6       29.97S                  
$$
 
IAZ064-065-067-068-078-151500-
   EAST CENTRAL IOWA
  
CITY           SKY/WX    TMP DP  RH WIND       PRES   REMARKS
DAVENPORT      CLOUDY    70  67  90 SE7       30.05F                  
IOWA CITY      CLOUDY    72  68  87 S8        30.01F                  
MUSCATINE *    CLOUDY    72  68  88 S10       30.01F                  
QUAD CITIES    CLOUDY    70  67  90 E8        30.04F                  
$$
 
IAZ062-063-075>077-085>089-095>099-151500-
   SOUTHEAST IOWA
  
CITY           SKY/WX    TMP DP  RH WIND       PRES   REMARKS
BURLINGTON     CLOUDY    70  67  90 S10       30.03F                  
FAIRFIELD *    MOSUNNY   72  70  94 S12       30.02R                  
FORT MADISON * CLOUDY    70  70 100 S12       30.05F                  
KEOKUK *       CLOUDY    70  68  94 S9        30.06F                  
OSKALOOSA *    FAIR      73  68  83 S7        30.01R                  
CENTERVILLE *  FAIR      73  73 100 S8        30.04R                  
OTTUMWA        SUNNY     72  69  90 S10       30.00S                  
WASHINGTON *     N/A    N/A N/A N/A MISG        N/A                   
$$

ABBREVIATIONS USED IN REMARKS
   TC - TEMPERATURES IN CELSIUS
  WCI - WIND CHILL INDEX
   HX - HEAT INDEX
  VSB - VISIBILITY  
$$